Location: *
(48.7358°N, 0.3111°E)
Time: 07:02:33
(UTC+00:00)

USA 267 - Pass Details

Date: 22 October 2019
Orbit: 1101 x 1106 km, 123.0° (Epoch: 12 November)

Event Time Altitude Azimuth Distance (km) Brightness Sun altitude
Rises 04:40:56 0° 57° (ENE) 3,925 7.2 -18.5°
Reaches altitude 10° 04:43:26 10° 55° (NE) 2,966 6.4 -18.1°
Maximum altitude 04:49:54 67° 335° (NNW) 1,190 3.3 -17.0°
Enters shadow 04:54:10 23° 259° (W) 2,153 4.2 -16.3°
